19980709,164914,60554,32.774,-117.327,20.172,32.273,0.389
19980709,165915,61155,32.798,-117.324,20.092,33.481,0.228
19980709,170935,61775,32.828,-117.32,20.540,33.490,0.269
19980709,171936,62376,32.851,-117.317,20.592,33.501,0.281
19980709,172938,62978,32.878,-117.312,20.562,33.498,0.274
19980709,173940,63580,32.904,-117.308,20.487,33.497,0.229
19980709,174941,64181,32.931,-117.305,20.530,33.501,0.204
19980709,175943,64783,32.953,-117.304,20.633,33.472,0.213
19980709,180948,65388,32.954,-117.305,20.703,33.482,0.224
19980709,181950,65990,32.951,-117.306,20.722,33.490,0.212
19980709,182951,66591,32.949,-117.307,20.775,33.483,0.186
19980709,183952,67192,32.946,-117.308,20.796,33.489,0.177
19980709,184954,67794,32.944,-117.31,20.851,33.485,0.177
19980709,185955,68395,32.943,-117.312,20.888,33.488,0.168
19980709,190900,68940,32.945,-117.312,20.939,33.483,0.165
19980709,191902,69542,32.945,-117.312,20.967,33.484,0.167
19980709,192904,70144,32.944,-117.315,20.984,33.483,0.164
19980709,193945,70785,32.939,-117.324,20.959,33.478,0.152
19980709,194927,71367,32.926,-117.354,20.863,33.423,0.143
19980709,195808,71888,32.916,-117.381,20.604,33.340,0.122
19980709,200950,72590,32.912,-117.396,20.283,33.185,0.106
19980709,201956,73196,32.911,-117.395,20.321,33.170,0.110
19980709,202957,73797,32.912,-117.396,20.259,33.171,0.109
19980709,203958,74398,32.911,-117.396,20.253,33.161,0.091
19980709,204859,74939,32.909,-117.397,20.228,33.156,0.097
19980709,205901,75541,32.908,-117.398,20.158,33.146,0.098
19980709,210902,76142,32.906,-117.4,19.977,33.155,0.090
19980709,211907,76747,32.904,-117.402,20.169,33.153,0.076
19980709,212909,77349,32.903,-117.403,20.232,33.157,0.072
19980709,213911,77951,32.901,-117.403,20.072,33.153,0.075
19980709,214912,78552,32.899,-117.405,20.058,33.159,0.076
19980709,215915,79155,32.898,-117.407,19.980,33.146,0.081
19980709,220916,79756,32.897,-117.41,19.636,33.141,0.082
19980709,221922,80362,32.895,-117.415,19.541,33.134,0.078
19980709,222923,80963,32.892,-117.418,19.524,33.132,0.076
19980709,223925,81565,32.889,-117.421,19.629,33.133,0.064
19980709,224906,82146,32.885,-117.428,19.599,33.129,0.067
19980709,225734,82654,32.873,-117.456,19.753,33.134,0.078
19980709,230934,83374,32.86,-117.491,19.900,33.135,0.078
19980709,231949,83989,32.85,-117.52,19.683,33.108,0.072
19980709,232911,84551,32.846,-117.531,19.568,33.122,0.070
19980709,233831,85111,32.846,-117.533,19.548,33.138,0.067
19980709,234926,85766,32.845,-117.532,19.553,33.136,0.067
19980709,235848,86328,32.844,-117.533,19.564,33.149,0.067
19980710,000902,86942,32.844,-117.533,19.576,33.143,0.064
19980710,001904,87544,32.843,-117.533,19.568,33.154,0.069
19980710,002905,88145,32.842,-117.533,19.560,33.152,0.073
19980710,003907,88747,32.841,-117.533,19.551,33.151,0.075
19980710,004909,89349,32.84,-117.533,19.541,33.154,0.079
19980710,005911,89951,32.839,-117.532,19.473,33.147,0.081
19980710,010917,90557,32.839,-117.531,19.510,33.156,0.085
19980710,011918,91158,32.839,-117.532,19.486,33.155,0.072
19980710,012921,91761,32.836,-117.534,19.489,33.153,0.075
19980710,013923,92363,32.834,-117.537,19.491,33.156,0.075
19980710,014623,92783,32.831,-117.542,19.502,33.160,0.072
19980710,015934,93574,32.826,-117.553,19.489,33.165,0.076
19980710,020918,94158,32.816,-117.572,19.464,33.176,0.075
19980710,021939,94779,32.802,-117.601,19.552,33.192,0.075
19980710,022140,94900,32.789,-117.631,19.424,33.194,0.072
19980710,023926,95966,32.776,-117.66,19.062,33.173,0.073
19980710,024848,96528,32.762,-117.691,19.237,33.223,0.078
19980710,025228,96748,32.751,-117.717,19.283,33.270,0.072
19980710,030600,97560,32.737,-117.75,19.134,33.271,0.070
19980710,031944,98384,32.72,-117.789,18.447,33.213,0.075
19980710,032945,98985,32.71,-117.812,18.535,33.188,0.078
19980710,033947,99587,32.697,-117.842,18.487,33.178,0.090
19980710,034948,100188,32.683,-117.866,18.089,33.185,0.097
19980710,035950,100790,32.681,-117.871,18.055,33.205,0.098
19980710,040920,101360,32.681,-117.871,18.087,33.194,0.081
19980710,041812,101892,32.682,-117.872,18.062,33.196,0.076
19980710,042909,102549,32.683,-117.872,18.032,33.197,0.070
19980710,043911,103151,32.683,-117.872,18.036,33.193,0.088
19980710,044913,103753,32.685,-117.873,18.045,33.197,0.100
19980710,045914,104354,32.686,-117.874,18.037,33.199,0.097
19980710,050915,104955,32.686,-117.874,18.060,33.206,0.097
19980710,051917,105557,32.686,-117.875,18.039,33.198,0.094
19980710,052928,106168,32.688,-117.878,18.009,33.202,0.091
19980710,053929,106769,32.691,-117.881,17.986,33.199,0.090
19980710,054931,107371,32.694,-117.885,17.983,33.199,0.088
19980710,055932,107972,32.696,-117.888,17.951,33.194,0.084
19980710,060933,108573,32.689,-117.904,17.818,33.168,0.082
19980710,061934,109174,32.676,-117.933,17.724,33.177,0.085
19980710,062945,109785,32.661,-117.964,17.717,33.225,0.094
19980710,063947,110387,32.647,-117.991,17.730,33.249,0.092
19980710,064948,110988,32.633,-118.019,17.562,33.212,0.101
19980710,065949,111589,32.618,-118.048,17.451,33.214,0.104
19980710,070950,112190,32.603,-118.075,17.481,33.227,0.103
19980710,071952,112792,32.587,-118.102,17.566,33.258,0.104
19980710,072903,113343,32.57,-118.128,17.680,33.300,0.110
19980710,073904,113944,32.555,-118.153,17.784,33.398,0.118
19980710,074906,114546,32.538,-118.179,17.760,33.399,0.121
19980710,075907,115147,32.521,-118.203,17.818,33.395,0.118
19980710,080908,115748,32.515,-118.212,17.851,33.390,0.112
19980710,081910,116350,32.516,-118.212,17.848,33.405,0.112
19980710,082921,116961,32.517,-118.213,17.845,33.404,0.107
19980710,083922,117562,32.518,-118.213,17.837,33.406,0.103
19980710,084923,118163,32.519,-118.213,17.844,33.407,0.103
19980710,085924,118764,32.52,-118.214,17.844,33.414,0.106
19980710,090925,119365,32.522,-118.215,17.848,33.406,0.106
19980710,091926,119966,32.522,-118.217,17.848,33.405,0.094
19980710,092937,120577,32.523,-118.22,17.839,33.404,0.110
19980710,093939,121179,32.524,-118.224,17.820,33.391,0.110
19980710,094940,121780,32.525,-118.229,17.793,33.383,0.091
19980710,095942,122382,32.526,-118.233,17.784,33.387,0.087
19980710,100943,122983,32.526,-118.236,17.787,33.383,0.073
19980710,101945,123585,32.52,-118.252,17.794,33.381,0.079
19980710,102956,124196,32.506,-118.279,17.812,33.387,0.104
19980710,103957,124797,32.491,-118.308,17.832,33.385,0.107
19980710,104958,125398,32.477,-118.335,17.879,33.390,0.110
19980710,105900,125940,32.464,-118.362,17.870,33.391,0.087
19980710,110901,126541,32.449,-118.387,17.820,33.384,0.078
19980710,111903,127143,32.432,-118.412,17.744,33.383,0.090
19980710,112804,127684,32.416,-118.437,17.696,33.390,0.082
19980710,113915,128355,32.397,-118.463,17.639,33.374,0.073
19980710,114917,128957,32.379,-118.488,17.664,33.365,0.076
19980710,115919,129559,32.362,-118.512,17.585,33.357,0.076
19980710,120921,130161,32.348,-118.539,17.481,33.374,0.109
19980710,121922,130762,32.346,-118.552,17.463,33.372,0.125
19980710,122924,131364,32.345,-118.553,17.451,33.390,0.128
19980710,123935,131975,32.344,-118.554,17.431,33.393,0.122
19980710,124936,132576,32.343,-118.555,17.415,33.402,0.104
19980710,125938,133178,32.343,-118.556,17.408,33.400,0.151
19980710,130940,133780,32.342,-118.557,17.396,33.408,0.157
19980710,131941,134381,32.342,-118.557,17.384,33.407,0.161
19980710,132942,134982,32.343,-118.558,17.387,33.427,0.167
19980710,133953,135593,32.342,-118.558,17.394,33.434,0.168
19980710,134954,136194,32.341,-118.559,17.393,33.431,0.174
19980710,135956,136796,32.341,-118.561,17.377,33.428,0.174
19980710,140957,137397,32.341,-118.561,17.369,33.430,0.170
19980710,141958,137998,32.341,-118.563,17.379,33.425,0.170
19980710,142859,138539,32.34,-118.563,17.377,33.430,0.165
19980710,143910,139150,32.34,-118.564,17.371,33.424,0.167
19980710,144912,139752,32.341,-118.567,17.353,33.431,0.167
19980710,145913,140353,32.342,-118.572,17.352,33.424,0.162
19980710,150915,140955,32.342,-118.576,17.378,33.422,0.154
19980710,151917,141557,32.342,-118.58,17.398,33.415,0.148
19980710,152919,142159,32.339,-118.591,17.404,33.414,0.146
19980710,153930,142770,32.324,-118.618,17.418,33.436,0.155
19980710,154932,143372,32.31,-118.647,17.365,33.456,0.161
19980710,155933,143973,32.296,-118.675,17.360,33.465,0.160
19980710,160935,144575,32.282,-118.704,17.338,33.477,0.161
19980710,161938,145178,32.268,-118.732,17.204,33.482,0.171
19980710,162940,145780,32.255,-118.761,17.134,33.459,0.168
19980710,163952,146392,32.241,-118.79,17.132,33.463,0.167
19980710,164955,146995,32.228,-118.819,17.181,33.481,0.206
19980710,165957,147597,32.213,-118.847,17.145,33.507,0.240
19980710,170959,148199,32.197,-118.873,17.115,33.537,0.331
19980710,171901,148741,32.181,-118.891,17.062,33.559,0.453
19980710,172903,149343,32.18,-118.895,17.048,33.576,0.528
19980710,173914,149954,32.182,-118.899,17.055,33.579,0.479
19980710,174916,150556,32.183,-118.903,17.061,33.585,0.460
19980710,175918,151158,32.185,-118.911,17.117,33.591,0.435
19980710,180920,151760,32.186,-118.917,17.190,33.568,0.354
19980710,181922,152362,32.185,-118.921,17.229,33.543,0.312
19980710,182923,152963,32.186,-118.922,17.249,33.536,0.315
19980710,183935,153575,32.185,-118.922,17.244,33.539,0.329
19980710,184937,154177,32.184,-118.923,17.245,33.541,0.344
19980710,185938,154778,32.183,-118.925,17.262,33.544,0.309
19980710,190940,155380,32.183,-118.927,17.275,33.537,0.294
19980710,191941,155981,32.182,-118.929,17.281,33.534,0.288
19980710,192943,156583,32.182,-118.93,17.297,33.526,0.272
19980710,193846,157126,32.182,-118.932,17.312,33.520,0.261
19980710,194958,157798,32.182,-118.934,17.326,33.513,0.261
19980710,195900,158340,32.182,-118.936,17.335,33.511,0.238
19980710,200901,158941,32.177,-118.945,17.352,33.505,0.219
19980710,201903,159543,32.16,-118.972,17.354,33.498,0.192
19980710,202905,160145,32.144,-119.001,17.341,33.497,0.186
19980710,203906,160746,32.126,-119.029,17.311,33.513,0.189
19980710,204918,161358,32.109,-119.059,17.266,33.516,0.198
19980710,205919,161959,32.092,-119.085,17.336,33.515,0.194
19980710,210921,162561,32.074,-119.113,17.358,33.490,0.177
19980710,211923,163163,32.056,-119.141,17.453,33.502,0.176
19980710,212924,163764,32.04,-119.17,17.444,33.495,0.189
19980710,213926,164366,32.024,-119.199,17.350,33.470,0.238
19980710,214938,164978,32.013,-119.225,17.357,33.402,0.191
19980710,215939,165579,32.011,-119.229,17.363,33.412,0.204
19980710,220941,166181,32.009,-119.231,17.368,33.409,0.198
19980710,221942,166782,32.009,-119.232,17.378,33.408,0.238
19980710,222943,167383,32.009,-119.234,17.392,33.411,0.189
19980710,223944,167984,32.008,-119.234,17.391,33.417,0.171
19980710,224955,168595,32.008,-119.236,17.402,33.412,0.171
19980710,225957,169197,32.007,-119.238,17.426,33.402,0.165
19980710,230958,169798,32.005,-119.242,17.431,33.404,0.157
19980710,231900,170340,32.004,-119.246,17.433,33.409,0.164
19980710,232902,170942,32.003,-119.252,17.464,33.401,0.164
19980710,233903,171543,32.002,-119.256,17.461,33.405,0.165
19980710,234915,172155,31.999,-119.26,17.428,33.400,0.170
19980710,235916,172756,31.988,-119.278,17.136,33.409,0.285
19980711,000918,173358,31.972,-119.305,16.724,33.417,0.382
19980711,001919,173959,31.957,-119.333,16.308,33.403,0.442
19980711,002921,174561,31.941,-119.361,16.195,33.407,0.484
19980711,003923,175163,31.925,-119.389,16.053,33.392,0.570
19980711,004935,175775,31.911,-119.417,15.734,33.367,0.628
19980711,005937,176377,31.897,-119.447,15.526,33.296,0.529
19980711,010939,176979,31.884,-119.477,15.560,33.247,0.329
19980711,011941,177581,31.872,-119.506,15.595,33.250,0.344
19980711,012943,178183,31.86,-119.537,15.603,33.258,0.368
19980711,013945,178785,31.849,-119.565,15.657,33.247,0.403
19980711,014958,179398,31.844,-119.573,15.663,33.239,0.375
19980711,015859,179939,31.842,-119.575,15.659,33.243,0.375
19980711,020900,180540,31.84,-119.577,15.656,33.236,0.375
19980711,021902,181142,31.838,-119.579,15.651,33.232,0.368
19980711,022903,181743,31.837,-119.581,15.649,33.231,0.358
19980711,023905,182345,31.835,-119.583,15.649,33.231,0.352
19980711,024807,182887,31.834,-119.586,15.657,33.213,0.345
19980711,025919,183559,31.833,-119.589,15.652,33.209,0.344
19980711,030920,184160,31.831,-119.591,15.635,33.206,0.319
19980711,031922,184762,31.831,-119.594,15.610,33.197,0.335
19980711,032824,185304,31.831,-119.598,15.591,33.183,0.329
19980711,033942,185982,31.831,-119.604,15.618,33.172,0.307
19980711,034943,186583,31.83,-119.608,15.613,33.163,0.280
19980711,035945,187185,31.831,-119.614,15.598,33.149,0.247
19980711,040946,187786,31.83,-119.624,15.632,33.136,0.183
19980711,041947,188387,31.816,-119.65,15.246,33.039,0.201
19980711,042949,188989,31.801,-119.678,15.006,33.018,0.250
19980711,043901,189541,31.786,-119.705,14.974,33.012,0.215
19980711,044903,190143,31.772,-119.729,15.209,33.015,0.185
19980711,045906,190746,31.758,-119.755,15.450,33.060,0.285
19980711,050908,191348,31.742,-119.783,15.384,33.049,0.271
19980711,051910,191950,31.726,-119.811,15.313,33.076,0.302
19980711,052912,192552,31.71,-119.839,15.171,33.096,0.344
19980711,053924,193164,31.694,-119.867,15.182,33.046,0.261
19980711,054926,193766,31.678,-119.895,15.240,33.050,0.216
19980711,055927,194367,31.663,-119.922,15.636,33.008,0.119
19980711,060928,194968,31.648,-119.949,16.130,33.000,0.113
19980711,061930,195570,31.634,-119.977,16.200,33.021,0.119
19980711,062932,196172,31.62,-120.006,16.144,33.039,0.115
19980711,063943,196783,31.607,-120.037,16.394,33.102,0.107
19980711,064945,197385,31.594,-120.066,16.971,33.223,0.091
19980711,065946,197986,31.581,-120.096,17.131,33.213,0.085
19980711,070948,198588,31.568,-120.125,17.235,33.210,0.084
19980711,071949,199189,31.555,-120.155,17.338,33.204,0.078
19980711,072950,199790,31.542,-120.185,17.395,33.227,0.079
19980711,073902,200342,31.53,-120.213,17.399,33.246,0.082
19980711,074904,200944,31.517,-120.237,17.470,33.271,0.094
19980711,075905,201545,31.514,-120.243,17.490,33.273,0.094
19980711,080907,202147,31.514,-120.246,17.488,33.277,0.094
19980711,081908,202748,31.513,-120.248,17.484,33.279,0.091
19980711,082910,203350,31.512,-120.251,17.483,33.276,0.091
19980711,083922,203962,31.512,-120.254,17.491,33.276,0.094
19980711,084923,204563,31.511,-120.257,17.492,33.280,0.097
19980711,085924,205164,31.511,-120.259,17.492,33.267,0.103
19980711,090926,205766,31.509,-120.262,17.482,33.275,0.101
19980711,091928,206368,31.508,-120.264,17.471,33.270,0.098
19980711,092930,206970,31.508,-120.267,17.458,33.273,0.106
19980711,093943,207583,31.507,-120.27,17.449,33.283,0.097
19980711,094945,208185,31.507,-120.274,17.432,33.280,0.094
19980711,095947,208787,31.507,-120.279,17.382,33.275,0.124
19980711,100910,209350,31.508,-120.283,17.348,33.218,0.431
19980711,101912,209952,31.508,-120.286,17.336,33.218,0.148
19980711,102914,210554,31.507,-120.289,17.337,33.254,0.139
19980711,103925,211165,31.506,-120.294,17.358,33.260,0.137
19980711,104927,211767,31.496,-120.312,17.347,33.248,0.140
19980711,105928,212368,31.483,-120.335,17.365,33.224,0.106
19980711,110929,212969,31.471,-120.356,17.372,33.237,0.094
19980711,111931,213571,31.459,-120.377,17.402,33.242,0.095
19980711,112932,214172,31.446,-120.399,17.403,33.240,0.134
19980711,113834,214714,31.435,-120.422,17.370,33.234,0.087
19980711,114946,215386,31.417,-120.45,17.315,33.227,0.085
19980711,115948,215988,31.397,-120.474,17.350,33.247,0.079
19980711,120950,216590,31.376,-120.497,17.385,33.239,0.092
19980711,121953,217193,31.355,-120.52,17.317,33.157,0.092
19980711,122955,217795,31.334,-120.542,17.252,33.113,0.098
19980711,123956,218396,31.313,-120.564,17.330,33.104,0.106
19980711,124908,218948,31.292,-120.586,17.422,33.107,0.106
19980711,125909,219549,31.273,-120.607,17.415,33.111,0.107
19980711,130910,220150,31.252,-120.629,17.397,33.119,0.109
19980711,131912,220752,31.232,-120.652,17.381,33.113,0.119
19980711,132913,221353,31.211,-120.675,17.404,33.106,0.106
19980711,133914,221954,31.191,-120.697,17.436,33.110,0.098
19980711,134926,222566,31.169,-120.722,17.445,33.115,0.100
19980711,135927,223167,31.149,-120.744,17.479,33.130,0.100
19980711,140929,223769,31.128,-120.766,17.554,33.162,0.097
19980711,141930,224370,31.113,-120.786,17.638,33.195,0.092
19980711,142932,224972,31.119,-120.801,17.625,33.155,0.103
19980711,143933,225573,31.129,-120.815,17.587,33.169,0.094
19980711,144945,226185,31.14,-120.83,17.561,33.144,0.091
19980711,145946,226786,31.149,-120.844,17.557,33.141,0.106
19980711,150948,227388,31.16,-120.857,17.534,33.153,0.084
19980711,151949,227989,31.169,-120.87,17.458,33.149,0.084
19980711,152950,228590,31.177,-120.882,17.441,33.146,0.085
19980711,153953,229193,31.17,-120.897,17.434,33.149,0.079
19980711,154905,229745,31.168,-120.908,17.436,33.152,0.082
19980711,155907,230347,31.17,-120.912,17.463,33.149,0.084
19980711,160909,230949,31.172,-120.914,17.477,33.161,0.082
19980711,161911,231551,31.174,-120.917,17.487,33.160,0.088
19980711,162913,232153,31.176,-120.922,17.483,33.166,0.090
19980711,163915,232755,31.178,-120.926,17.506,33.179,0.097
19980711,164926,233366,31.179,-120.929,17.529,33.175,0.098
19980711,165927,233967,31.179,-120.931,17.530,33.179,0.106
19980711,170930,234570,31.179,-120.933,17.537,33.181,0.106
19980711,171932,235172,31.179,-120.936,17.540,33.182,0.109
19980711,172934,235774,31.179,-120.937,17.547,33.181,0.106
19980711,173936,236376,31.179,-120.939,17.554,33.178,0.094
19980711,174948,236988,31.179,-120.941,17.558,33.181,0.092
19980711,175950,237590,31.179,-120.943,17.562,33.180,0.092
19980711,180952,238192,31.18,-120.945,17.562,33.179,0.095
19980711,181954,238794,31.18,-120.947,17.567,33.181,0.092
19980711,182956,239396,31.18,-120.949,17.574,33.180,0.091
19980711,183957,239997,31.18,-120.95,17.575,33.185,0.092
19980711,184759,240479,31.179,-120.957,17.573,33.185,0.090
19980711,185911,241151,31.167,-120.984,17.610,33.184,0.091
19980711,190912,241752,31.154,-121.013,17.629,33.190,0.131
19980711,191913,242353,31.141,-121.041,17.643,33.194,0.079
19980711,192915,242955,31.127,-121.07,17.668,33.205,0.081
19980711,193916,243556,31.114,-121.098,17.707,33.212,0.085
19980711,194919,244159,31.1,-121.126,17.764,33.241,0.134
19980711,195930,244770,31.086,-121.156,17.817,33.266,0.133
19980711,200932,245372,31.073,-121.183,17.834,33.293,0.152
19980711,201934,245974,31.06,-121.211,17.904,33.312,0.151
19980711,202935,246575,31.047,-121.241,17.946,33.332,0.101
19980711,203937,247177,31.033,-121.269,18.012,33.349,0.148
19980711,204938,247778,31.02,-121.297,18.053,33.358,0.101
19980711,205950,248390,31.005,-121.327,18.067,33.384,0.179
19980711,210952,248992,30.99,-121.352,18.118,33.427,0.137
19980711,211953,249593,30.974,-121.379,18.149,33.439,0.151
19980711,212954,250194,30.958,-121.406,18.189,33.440,0.128
19980711,213956,250796,30.941,-121.432,18.221,33.466,0.087
19980711,214957,251397,30.924,-121.458,18.233,33.481,0.113
19980711,215909,251949,30.907,-121.484,18.270,33.510,0.131
19980711,220910,252550,30.89,-121.508,18.274,33.559,0.133
19980711,221912,253152,30.873,-121.534,18.270,33.610,0.165
19980711,222913,253753,30.857,-121.562,18.279,33.629,0.154
19980711,223914,254354,30.848,-121.585,18.309,33.623,0.100
19980711,224916,254956,30.847,-121.59,18.324,33.643,0.088
19980711,225927,255567,30.847,-121.592,18.326,33.647,0.095
19980711,230929,256169,30.847,-121.594,18.328,33.644,0.064
19980711,231930,256770,30.848,-121.596,18.326,33.645,0.064
19980711,232932,257372,30.848,-121.598,18.342,33.588,0.090
19980711,233934,257974,30.847,-121.6,18.333,33.646,0.106
19980711,234935,258575,30.847,-121.602,18.333,33.648,0.101
19980711,235947,259187,30.849,-121.604,18.332,33.650,0.122
19980712,000925,259765,30.85,-121.606,18.354,33.621,0.215
19980712,001926,260366,30.852,-121.61,18.341,33.647,0.110
19980712,002928,260968,30.854,-121.614,18.351,33.652,0.090
19980712,003930,261570,30.855,-121.618,18.350,33.655,0.076
19980712,004932,262172,30.858,-121.621,18.353,33.645,0.042
19980712,005944,262784,30.85,-121.641,18.317,33.662,0.035
19980712,010947,263387,30.835,-121.669,18.260,33.665,0.031
19980712,011950,263990,30.82,-121.696,18.241,33.665,0.032
19980712,012952,264592,30.805,-121.723,18.246,33.659,0.038
19980712,013955,265195,30.79,-121.751,18.240,33.651,0.061
19980712,014958,265798,30.775,-121.778,18.286,33.643,0.076
19980712,015949,266389,30.759,-121.808,18.245,33.582,0.078
19980712,020952,266992,30.745,-121.833,18.229,33.520,0.081
19980712,021953,267593,30.731,-121.861,18.208,33.498,0.073
19980712,022955,268195,30.716,-121.888,18.209,33.491,0.057
19980712,023957,268797,30.701,-121.916,18.200,33.492,0.051
19980712,024959,269399,30.686,-121.944,18.167,33.480,0.061
19980712,025911,269951,30.671,-121.971,18.283,33.520,0.058
19980712,030913,270553,30.656,-121.997,18.336,33.541,0.076
19980712,031915,271155,30.639,-122.024,18.323,33.527,0.090
19980712,032917,271757,30.623,-122.051,18.269,33.518,0.098
19980712,033919,272359,30.607,-122.078,18.232,33.520,0.085
19980712,034921,272961,30.59,-122.106,18.201,33.529,0.082
19980712,035933,273573,30.574,-122.133,18.226,33.542,0.085
19980712,040934,274174,30.559,-122.161,18.272,33.565,0.081
19980712,041936,274776,30.544,-122.189,18.293,33.598,0.090
19980712,042938,275378,30.53,-122.217,18.270,33.621,0.090
19980712,043940,275980,30.517,-122.246,18.252,33.627,0.072
19980712,044942,276582,30.512,-122.259,18.274,33.618,0.072
19980712,045954,277194,30.512,-122.26,18.272,33.631,0.078
19980712,050955,277795,30.513,-122.261,18.274,33.637,0.041
19980712,051956,278396,30.513,-122.263,18.273,33.635,0.041
19980712,052958,278998,30.515,-122.265,18.269,33.637,0.057
19980712,054000,279600,30.517,-122.268,18.267,33.639,0.145
19980712,054902,280142,30.518,-122.271,18.274,33.614,0.095
19980712,055803,280683,30.52,-122.275,18.297,33.620,0.061
19980712,060915,281355,30.522,-122.278,18.311,33.615,0.061
19980712,061917,281957,30.525,-122.282,18.329,33.604,0.078
19980712,062919,282559,30.527,-122.286,18.348,33.598,0.076
19980712,063920,283160,30.528,-122.291,18.365,33.594,0.060
19980712,064922,283762,30.53,-122.299,18.380,33.597,0.054
19980712,065924,284364,30.519,-122.324,18.353,33.571,0.044
19980712,070936,284976,30.504,-122.354,18.327,33.546,0.058
19980712,071937,285577,30.49,-122.382,18.327,33.544,0.056
19980712,072939,286179,30.476,-122.411,18.349,33.550,0.058
19980712,073940,286780,30.46,-122.439,18.340,33.553,0.053
19980712,074942,287382,30.444,-122.467,18.301,33.550,0.050
19980712,075944,287984,30.429,-122.494,18.274,33.553,0.051
19980712,080956,288596,30.411,-122.524,18.268,33.559,0.044
19980712,081959,289199,30.396,-122.551,18.276,33.571,0.041
19980712,082901,289741,30.381,-122.578,18.277,33.576,0.042
19980712,083903,290343,30.365,-122.604,18.289,33.580,0.042
19980712,084905,290945,30.349,-122.631,18.358,33.584,0.047
19980712,085907,291547,30.332,-122.659,18.332,33.545,0.084
19980712,090920,292160,30.315,-122.688,18.167,33.475,0.088
19980712,091921,292761,30.299,-122.714,18.202,33.484,0.090
19980712,092923,293363,30.283,-122.742,18.246,33.499,0.091
19980712,093925,293965,30.267,-122.769,18.274,33.522,0.090
19980712,094927,294567,30.25,-122.796,18.311,33.547,0.090
19980712,095929,295169,30.234,-122.824,18.350,33.568,0.088
19980712,100940,295780,30.217,-122.852,18.377,33.575,0.087
19980712,101942,296382,30.201,-122.879,18.402,33.596,0.087
19980712,102944,296984,30.185,-122.906,18.493,33.660,0.084
19980712,103946,297586,30.18,-122.921,18.541,33.711,0.082
19980712,104947,298187,30.181,-122.924,18.551,33.722,0.057
19980712,105949,298789,30.181,-122.926,18.541,33.732,0.082
19980712,110900,299340,30.181,-122.929,18.548,33.733,0.082
19980712,111901,299941,30.181,-122.93,18.556,33.734,0.057
19980712,112903,300543,30.181,-122.933,18.558,33.739,0.044
19980712,113905,301145,30.181,-122.935,18.554,33.745,0.044